Tracking 19909 objects as of 22-Oct-2019
HD Live streaming from Space Station
objects crossing your sky now

IRIDIUM 33 DEB

Track IRIDIUM 33 DEB now!
10-day predictions


NORAD ID: 34520
Int'l Code: 1997-051HM
Perigee: 616.4 km
Apogee: 636.7 km
Inclination: 86.4 °
Period: 97.1 minutes
Semi major axis: 6997 km
RCS: 0.052 m2 (small)
Launch date: September 14, 1997
Source: United States (US)
Launch site: TYURATAM MISSILE AND SPACE COMPLEX (TTMTR)

Note: This is SATELLITE DEBRIS
aabbcc
Your satellite tracking list
Your tracking list is empty




NASA's NSSDC Master Catalog

Two Line Element Set (TLE):
1 34520U 97051HM  19294.38243982 +.00006297 +00000-0 +76767-3 0  9990
2 34520 086.3629 232.5099 0014493 327.2528 032.7795 14.83157227564659
Source of the keplerian elements: AFSPC